Location: Barcelonne
(43.7036°N, 0.2362°W)
Time: 23:27:34
(UTC+00:00)

Daily predictions for brighter satellites

Satellite Brightness Start Highest point End
(mag) Time Altitude Azimuth Time Altitude Azimuth Time Altitude Azimuth
Cosmos 1503 Rocket 4.0 16:48:01 10° SSW 16:53:16 85° ESE 16:58:29 10° NNE
Lacrosse 5 rocket 3.4 16:54:30 10° NNW 16:55:41 11° N 16:56:52 10° N
EXPRESS MD2 3.8 16:54:04 10° SSW 16:56:00 23° SE 16:58:28 10° E
Cosmos 1484 Rocket 2.5 16:54:54 10° SSE 16:58:24 89° SW 17:01:55 10° NNW
Thor Agena Rocket 3.6 16:54:32 10° SSE 16:59:37 59° ENE 17:04:41 10° N
CZ-4C R/B 3.1 16:53:11 10° NW 17:00:22 83° NE 17:09:12 10° SE
Cosmos 1544 Rocket 4.3 16:56:10 10° SSW 17:00:30 56° W 17:04:52 10° N
UNK 4.0 16:56:13 10° NNE 17:00:41 49° E 17:05:04 10° S
Cosmos 1743 2.6 16:59:34 10° NNW 17:02:47 71° W 17:05:59 10° S
NOSS 2-3 (D) 3.4 16:59:23 10° SSW 17:03:02 54° ESE 17:06:42 10° NE
NOSS 2-3 (E) 3.2 17:00:02 10° SSW 17:03:41 60° ESE 17:07:22 10° NE
Cosmos 1354 Rocket 4.0 16:59:02 10° SSW 17:04:17 74° ESE 17:09:32 10° NNE
IGS 5A 3.3 17:01:54 10° SSE 17:05:51 88° E 17:09:51 10° NNW
Cosmos 1777 Rocket 4.5 17:01:19 10° SSW 17:06:31 63° WNW 17:11:44 10° NNE
Cosmos-2242 4.5 17:05:24 10° SE 17:08:08 17° E 17:10:54 10° NE
USA 238 DEB 3.8 17:02:26 10° S 17:08:09 47° ESE 17:14:23 10° NE
USA 238 3.9 17:02:33 10° S 17:08:17 47° ESE 17:14:30 10° NE
MOS 1 Rocket 4.0 17:04:49 10° SE 17:09:18 36° ENE 17:14:01 10° N
Cosmos 2151 3.0 17:06:46 10° N 17:10:56 83° W 17:15:06 10° S
Gbstr 26 Del rocket 3.1 17:08:49 10° WSW 17:13:00 59° NNW 17:16:29 12° NE
Cosmos 1726 Rocket 4.0 17:09:11 10° SSE 17:13:36 46° E 17:18:00 10° NNE
Cosmos 1900 4.5 17:08:55 10° NW 17:13:58 83° WSW 17:18:53 10° SSE
USA 215 4.4 17:12:28 10° NE 17:17:53 29° N 17:23:18 10° WNW
SMAP 3.0 17:13:30 10° SSE 17:18:07 71° ENE 17:22:46 10° N
IRIDIUM 104 4.3 17:13:45 10° N 17:19:01 88° E 17:24:14 10° S
Meteor 1-20 Rocket 4.3 17:15:18 10° NNW 17:20:47 81° W 17:26:16 10° S
Cosmos 2084 Rocket 4.3 17:17:04 10° NW 17:21:11 54° WSW 17:25:15 10° SSE
Cosmos 1805 4.5 17:19:43 10° NNE 17:21:48 15° ENE 17:23:54 10° ESE
Landsat 7 3.8 17:17:42 10° SSE 17:22:16 61° ENE 17:26:52 10° N
Cosmos 2297 Rocket 3.4 17:17:30 10° NW 17:22:55 47° WSW 17:28:18 10° S
Cosmos 1602 Rocket 4.2 17:19:46 10° NNW 17:24:04 58° W 17:28:18 10° S
GEOS 3 Rocket 3.7 17:19:33 10° NE 17:24:58 82° SE 17:30:20 10° SW
YAOGAN 1 3.9 17:22:20 10° ESE 17:25:16 19° ENE 17:28:14 10° NNE
SL-16 R/B 4.0 17:27:53 10° ESE 17:29:26 11° E 17:29:26 11° E
NOSS 7 (H) 4.5 17:26:36 10° NW 17:29:32 70° SW 17:32:55 10° SSE
Cosmos 990 Rocket 4.1 17:26:34 10° SSW 17:31:41 76° WNW 17:36:51 10° NNE
Okean 1-7 Rocket 3.8 17:27:31 10° NNW 17:31:54 72° W 17:36:13 10° S
CZ-2D R/B 4.4 17:29:51 10° ESE 17:33:16 25° ENE 17:36:39 10° NNE
COSMOS 2455 4.0 17:31:44 10° SSE 17:36:12 22° ESE 17:38:36 17° ENE
SL-16 R/B 3.5 17:30:52 10° N 17:36:46 47° WNW 17:42:37 10° SW
Okean 1 4.1 17:34:21 10° SSE 17:37:20 25° E 17:38:21 22° ENE
SKYMED 2 4.2 17:35:14 12° NNE 17:38:54 35° E 17:42:52 10° SSE
SJ-6F 4.3 17:39:37 10° SSE 17:43:32 60° ENE 17:47:30 10° N
Cosmos 1980 Rocket 2.1 17:38:23 10° SSW 17:44:01 74° ESE 17:49:21 12° NNE
Cosmos 1844 Rocket 4.1 17:41:58 10° N 17:45:42 18° NE 17:45:49 18° NE
Aureole 1 Rocket 3.3 17:41:38 10° S 17:46:00 70° ESE 17:51:38 10° NNE
Cosmos 2219 3.4 17:40:46 10° NNW 17:46:18 47° ENE 17:51:50 10° SE
Meteor 1-26 Rocket 4.4 17:42:14 10° SSE 17:47:20 45° E 17:52:27 10° NNE
Cosmos 1953 Rocket 3.5 17:44:25 10° N 17:48:53 73° E 17:53:18 10° SSE
PSLV R/B 4.4 17:46:03 10° ESE 17:49:59 24° NE 17:52:43 10° NNE
ARIANE 5 R/B 2.7 17:46:09 10° S 17:51:12 76° WSW 17:56:22 10° NNW
IRS-1C 4.3 17:47:35 10° S 17:52:53 76° WSW 17:58:14 10° NNW
Cosmos 2263 Rocket 2.1 17:48:51 10° NNW 17:54:34 78° ENE 18:00:15 10° SSE
BREEZE-M DEB (TANK) 2.5 17:51:55 10° SW 17:56:29 62° SSE 17:57:13 41° E
Cosmos 1825 Rocket 4.4 17:52:26 10° NNW 17:56:39 52° W 18:00:49 10° S
SAR-Lupe-4 4.2 17:54:37 10° S 17:58:07 56° W 18:01:37 10° NNW
Meteor 1-5 Rocket 4.3 17:53:53 10° NNW 17:59:16 77° W 18:04:47 10° S
BREEZE-M DEB (TANK) 4.0 17:55:51 10° WNW 17:59:29 58° NNE 18:06:53 19° E
Cosmos 1680 Rocket 4.3 17:55:20 10° N 17:59:51 28° ENE 18:00:24 28° ENE
COSMO-SKYMED 1 2.9 17:59:08 31° ENE 18:00:14 37° E 18:04:03 10° SSE
Cosmos 2369 3.8 17:56:07 10° S 18:01:41 57° ESE 18:05:20 22° NE
Cosmos 1076 Rocket 3.8 17:59:11 10° NNW 18:03:30 71° W 18:07:47 10° S
Meteor 2-10 4.0 17:58:21 10° N 18:03:47 75° E 18:09:22 10° SSE
Cosmos 1655 Rocket 4.3 18:06:20 10° NNW 18:12:32 70° W 18:18:41 10° S
USA 81 4.0 18:07:41 10° N 18:12:59 87° E 18:18:15 10° S
Cosmos 2227 Rocket 3.5 18:09:16 10° NW 18:14:34 42° WSW 18:19:49 10° S
SPOT 1/Viking Rocket 3.5 18:10:04 10° SSE 18:15:16 87° ENE 18:20:30 10° NNW
Cosmos 2058 Rocket 3.3 18:17:55 10° SSW 18:22:21 69° W 18:26:26 12° N
Cosmos 1697 Rocket 4.4 18:19:08 10° WSW 18:23:54 28° NW 18:28:40 10° N
USA 308 4.5 18:28:24 10° S 18:29:25 17° S 18:29:25 17° S
Cosmos 2333 Rocket 3.5 18:26:44 10° SSE 18:29:34 23° SE 18:29:34 23° SE
Meteor 2-11 Rocket 4.3 18:29:46 10° N 18:35:56 69° E 18:42:02 10° SSE
Meteor 1-14 Rocket 4.4 18:34:26 10° N 18:39:09 48° NE 18:39:09 48° NE
Resurs 1-3 3.7 18:37:55 10° S 18:42:12 73° WSW 18:46:30 10° NNW
Cosmos 2322 Rocket 4.1 18:37:50 10° SSE 18:39:03 15° SSE 18:39:03 15° SSE
Cosmos-2242 4.2 18:40:48 10° SSW 18:44:49 41° WNW 18:47:45 17° NNW
USA 59 Rocket 2.4 18:44:54 10° S 18:45:01 11° S 18:45:01 11° S
Spot 4 Rocket 4.4 18:46:57 10° S 18:51:59 61° WSW 18:57:04 10° NNW
Cosmos 1553 Rocket 4.4 18:53:03 10° SSW 18:59:07 61° W 19:05:21 10° N
S3M 3.9 18:53:21 10° S 18:59:18 66° ESE 18:59:18 66° ESE
USA 215 4.2 18:59:28 31° NNE 18:59:43 31° NNE 19:05:19 10° NW
IRAS Rocket 4.4 18:54:33 10° S 19:00:00 68° WSW 19:05:28 10° NNW
YAOGAN 1 3.6 18:56:45 10° S 19:00:48 43° W 19:04:53 10° NNW
Cosmos 2082 4.3 18:57:42 10° NNW 19:03:18 56° WSW 19:08:52 10° S
BREEZE-M DEB (TANK) 3.1 18:59:20 10° SW 19:06:16 83° SSW 19:06:16 83° SSW
Meteor 2-6 Rocket 4.5 19:03:56 10° SSW 19:09:34 68° WNW 19:11:37 40° N
SL-16 R/B 2.5 19:06:55 10° SSW 19:11:20 56° S 19:11:20 56° S
Cosmos 1745 Rocket 3.9 19:11:49 10° N 19:18:00 81° W 19:24:07 10° S
COSMOS 2455 3.1 19:15:36 10° SW 19:21:34 65° NW 19:21:46 65° NW
Cosmos 1980 Rocket 4.3 19:24:28 10° W 19:28:35 20° NW 19:31:06 16° NNW
Cosmos 1844 Rocket 4.0 19:24:40 10° NNW 19:27:31 31° NNW 19:27:31 31° NNW
Cosmos 2333 Rocket 4.4 20:10:04 10° SW 20:11:39 19° SW 20:11:39 19° SW
